Weather in Chernaya

Russia / Nenets Autonomous Okrug     68°27′10″N   56°42′21″E
temp.,
°C
wind,
m/s
gust,
m/s
humid.,
%
clouds,
%
prec.,
mm/h
press.,
hPa
HPBL,
m
23 october, sat
sat2300:00−3ene2497100 0.4 982181
03:00−2ne2497100 0.8 981216
06:00−2nne3597100 0.5 981186
09:00−1n469076 0.6 982272
12:000nnw698280 0.2 984368
15:00−1nnw457989 0.3 985177
18:000n71086100 0.4 988338
21:000nnw7117018 0.7 990323
24 october, sun
sun2400:000nnw7126698 0.2 993367
03:00−1nw6116899 0.4 996352
06:00−2nw577292 0.1 998240
09:00−2wnw347518 0.1 1000197
12:00−2w347521 0.0 1002158
15:00−3w3380100 0.0 1003139
18:00−3w3383100 0.0 1003128
21:00−4wsw338784 0.0 100444
25 october, mon
mon2500:00−4sw348993 0.0 100467
03:00−5sw358999 0.0 100371
06:00−5wsw5890100 0.0 1003134
09:00−3nw3692100 0.8 1004367
12:00−3nw45707 0.3 1005205
15:00−5w347694 0.3 1005190
18:00−4wsw4679100 0.6 1004226
21:00−3w4675100 1.9 1004224
26 october, tue
tue2600:00−4wnw477494 0.6 1004245
03:00−6wnw347772 0.6 1005200
06:00−3wnw5972100 0.1 1003283
09:00−2nw5969100 0.4 1003342
12:00−2nw71170100 0.4 1004365
15:00−2n6977100 1.6 1005410
18:00−3n5875100 0.2 1006258
21:00−4n3476100 0.3 1008178
27 october, wed
wed2700:00−5nw2383100 0.2 1009135
03:00−5nnw2386100 0.6 1010146
06:00−4nw2382100 0.4 1010176
09:00−6wnw2378100 0.4 1011155
12:00−4wsw337593 0.1 1011168
15:00−4w4794100 0.6 1010295
18:00−5w338788 0.6 1009147
21:00−9w33825 0.6 1009135